Theta_e
335 335 336 336 338 336 334 335 336 337 337 337 338 336 336 336 336 334 334 332 329 329 329 327 326 326 325 325 325 326 323 323 323 320 315 316 314 315 320 320 318 318 317 317 316 313 312 304 306 310 312 311 312 313 311 311 312 312 313 311 309 311 308
336 336 335 335 334 334 332 333 334 334 335 336 335 335 334 333 333 333 330 327 327 325 324 324 322 322 322 322 322 322 321 321 321 321 318 317 318 317 320 318 317 314 314 314 316 315 309 309 304 306 306 313 314 313 312 312 311 315 312 308 312 308 309
333 334 332 331 332 332 331 332 331 331 331 332 333 333 332 330 329 329 326 324 323 321 321 320 321 321 321 320 321 320 319 318 318 318 317 317 317 316 316 317 314 315 313 312 311 311 313 310 305 305 308 308 308 310 315 315 312 309 308 310 306 306 305
331 332 330 329 330 330 329 329 329 329 330 330 331 332 332 329 327 326 324 323 325 325 322 318 319 319 320 320 320 319 318 317 317 317 317 317 316 315 314 313 312 312 311 309 308 310 310 308 309 307 305 305 307 307 310 310 310 304 305 306 303 306 303
334 331 329 328 330 329 328 327 328 328 328 329 331 331 328 327 326 325 324 324 323 322 320 319 319 319 320 320 320 319 318 319 319 318 317 316 316 314 314 314 312 312 311 310 312 311 310 309 309 307 304 305 304 302 307 308 304 302 303 301 300 301 302
335 333 330 328 329 328 328 327 326 325 326 326 326 324 325 325 324 323 322 321 320 320 319 318 319 320 319 318 317 317 317 316 316 316 315 315 315 312 312 313 312 312 311 313 312 310 310 311 308 305 305 306 304 304 301 301 299 302 301 300 301 301 302
333 332 330 329 329 328 328 327 326 325 325 325 324 323 323 323 322 321 321 320 318 318 318 319 318 317 317 316 316 316 316 316 316 315 315 315 314 313 314 310 310 311 311 312 311 310 308 307 305 303 305 307 308 303 298 298 299 298 300 301 301 302 302
332 332 330 330 329 328 328 326 326 327 327 325 323 323 323 322 321 320 320 319 319 319 319 319 319 318 317 316 316 316 316 316 315 315 313 313 312 312 312 311 311 311 311 310 310 310 309 308 307 306 305 302 305 304 298 298 298 298 299 301 302 302 303
333 333 331 331 330 329 326 325 325 325 325 324 323 324 323 322 320 319 319 318 318 318 318 318 317 316 316 315 314 314 313 316 314 313 313 313 313 313 311 311 310 309 310 311 310 310 309 310 308 308 305 304 301 300 302 297 298 299 301 300 302 303 303
333 332 331 330 330 329 327 327 326 325 326 324 323 323 321 320 320 319 317 316 317 317 317 317 316 315 315 314 314 315 314 314 313 312 313 312 312 312 311 311 310 309 309 311 311 311 311 310 310 308 306 303 304 301 298 299 297 298 299 302 300 302 304
332 331 330 328 327 326 325 325 324 322 322 323 322 321 320 319 319 319 317 317 317 317 316 315 314 315 316 315 314 314 314 315 313 313 313 312 311 312 311 310 309 309 311 310 310 310 309 310 310 308 306 305 305 302 301 299 299 300 301 304 303 302 303
331 330 329 327 325 324 323 323 322 321 321 321 320 319 318 317 317 317 316 315 316 316 316 316 315 315 315 313 314 313 314 313 312 312 313 313 313 312 309 309 310 309 311 310 310 310 309 308 308 308 308 307 306 305 304 302 298 302 304 302 304 305 303
330 329 327 325 323 322 322 322 321 320 320 320 319 319 317 316 316 315 315 315 315 315 314 315 315 314 314 313 314 313 312 311 310 309 309 311 312 311 309 308 309 310 311 309 309 310 310 309 309 307 308 307 306 306 305 303 300 300 305 304 304 304 304
329 328 326 325 323 322 322 321 320 320 320 319 319 318 317 316 315 315 314 314 313 314 313 314 314 314 313 312 312 312 311 310 308 308 308 308 309 308 307 307 308 309 309 309 309 309 309 308 309 310 308 306 305 306 304 302 299 300 303 306 306 304 305
329 327 325 324 323 322 321 320 320 319 319 319 319 317 316 316 316 314 312 312 313 313 313 312 313 313 311 311 311 313 311 309 308 308 309 307 308 310 309 306 307 308 309 308 308 306 307 307 307 306 305 307 304 306 306 304 301 300 298 303 304 304 302
327 326 324 324 322 321 321 320 319 319 319 319 319 318 317 316 315 313 312 312 312 312 312 312 313 312 311 310 309 310 311 310 309 308 307 307 306 308 308 308 308 309 312 308 308 309 309 307 307 306 305 306 305 305 306 306 303 300 300 300 303 300 301
327 326 324 323 322 321 320 320 320 319 319 319 317 317 317 315 315 312 312 312 312 311 311 312 312 310 310 310 309 309 309 309 309 308 307 306 307 307 307 307 308 308 308 307 306 307 307 307 306 305 305 305 304 304 305 306 305 302 301 300 301 299 301
326 325 323 322 321 321 321 320 320 319 318 318 317 316 316 315 314 312 312 311 310 310 311 311 310 311 311 311 309 309 308 308 308 308 308 308 310 307 308 307 307 308 308 307 307 307 307 306 305 304 303 303 302 304 305 306 305 304 301 300 300 301 301
325 324 322 322 321 321 321 320 320 319 317 317 317 316 315 314 313 311 311 311 311 311 311 310 310 309 309 310 310 310 310 309 308 307 307 307 307 308 307 307 307 307 307 307 307 308 307 305 304 303 303 302 301 302 303 304 303 302 302 301 299 298 299
325 322 321 321 322 321 321 320 319 317 318 317 316 315 315 314 313 311 310 311 311 311 310 310 309 309 309 309 310 309 309 308 308 308 307 307 307 307 306 306 306 306 304 304 305 304 306 307 305 302 302 301 302 302 301 301 301 300 301 300 299 298 297
324 322 322 321 321 321 321 321 319 318 318 317 316 314 314 313 312 311 311 311 310 310 310 309 309 309 309 310 309 308 308 308 307 308 307 307 307 305 304 302 301 300 300 300 301 301 301 302 304 300 300 300 300 300 299 299 299 297 298 300 297 296 296
323 322 321 320 320 321 320 320 320 318 317 317 317 315 315 313 311 310 310 311 310 310 310 309 310 309 309 309 309 307 307 307 307 306 306 305 305 303 301 300 299 300 301 301 301 300 300 303 302 299 298 298 299 298 298 298 298 296 297 299 296 298 295
321 320 320 320 320 320 320 320 319 318 317 316 316 315 314 312 310 310 309 309 310 311 310 311 311 308 309 309 308 307 308 307 307 306 305 304 303 301 299 298 301 303 302 302 301 297 296 297 301 301 299 298 297 297 296 296 296 296 297 297 296 295 293
320 319 319 319 319 319 319 320 319 317 316 316 315 315 313 310 310 309 309 309 309 310 311 307 300 299 301 304 309 308 307 307 307 306 305 302 299 298 297 298 300 302 303 301 300 295 295 294 294 294 295 298 301 298 296 295 294 296 296 297 298 295 293
319 319 319 318 318 318 318 318 317 317 316 316 315 314 313 311 311 310 310 309 310 310 305 299 295 295 295 296 304 308 308 307 307 306 304 302 300 299 298 301 303 304 303 302 300 298 299 296 294 293 293 293 292 293 294 297 295 294 295 295 296 295 294
319 319 318 318 317 318 317 317 317 316 315 316 315 313 311 311 310 311 310 309 309 306 302 295 294 294 294 293 293 305 307 307 306 306 305 303 303 302 303 304 304 305 305 306 306 300 298 298 297 295 295 296 295 293 290 290 293 297 297 296 296 295 294
319 318 318 317 317 317 317 316 316 316 315 315 314 313 312 311 311 311 310 309 308 305 303 296 294 294 293 292 291 300 307 308 307 307 306 306 305 304 303 302 301 302 303 304 301 300 304 303 299 297 297 296 296 299 296 292 291 291 296 298 296 295 297
319 318 317 316 316 316 316 316 316 316 314 313 313 312 311 310 310 310 310 310 307 304 303 294 294 293 293 293 293 298 309 310 308 307 307 306 305 304 304 305 304 303 301 297 297 297 299 299 301 304 300 297 298 300 299 298 297 299 300 301 299 298 298
319 317 316 316 316 315 316 317 316 316 314 314 313 313 312 311 310 310 310 310 306 303 301 293 294 293 293 293 295 310 308 306 306 305 305 306 307 306 307 306 304 302 300 297 296 291 292 293 297 301 304 303 302 303 302 306 300 300 302 301 300 299 300
316 316 315 315 315 315 316 316 316 315 313 313 312 312 311 310 310 310 310 309 304 302 299 295 293 293 293 292 298 309 306 304 304 304 304 305 304 305 306 305 306 303 299 297 292 289 290 292 297 301 303 303 304 302 303 306 297 294 295 294 294 294 294
315 314 315 314 315 316 316 316 316 314 313 313 311 311 311 310 310 310 309 307 303 300 299 296 293 293 293 292 299 308 304 304 303 303 303 304 304 304 304 307 304 304 298 295 289 290 289 295 299 303 303 302 301 300 298 299 302 305 295 293 293 293 293
315 315 314 315 316 316 316 315 315 315 314 313 312 311 310 309 309 309 309 305 304 301 299 296 293 293 293 292 297 305 305 303 302 302 301 302 304 302 301 301 302 300 298 294 287 289 289 293 299 304 302 301 300 298 296 296 296 296 298 298 299 302 300
316 315 315 316 316 316 316 315 314 313 313 313 311 311 309 308 307 307 303 301 301 301 299 297 295 293 293 292 293 303 303 306 301 301 300 300 302 298 299 297 295 289 289 289 289 287 289 288 295 300 302 299 297 298 295 293 295 296 296 298 298 300 301
317 317 317 316 316 315 315 313 312 312 312 312 311 311 310 308 306 303 303 302 302 301 300 298 296 291 292 292 292 294 301 303 303 301 301 300 301 299 296 296 295 290 289 289 290 289 288 289 289 295 301 297 296 296 291 292 295 298 296 297 300 300 301
318 318 318 317 315 314 315 314 312 310 308 307 306 305 305 305 305 304 303 303 303 302 301 300 297 292 291 292 291 291 298 304 300 304 300 299 299 300 298 297 295 291 289 288 289 289 289 289 288 297 298 288 287 288 292 293 293 293 295 298 298 297 299
316 317 317 315 313 311 310 309 309 309 308 306 305 304 304 304 303 303 303 303 303 303 301 299 296 295 292 291 291 291 291 295 293 301 303 302 300 300 301 299 296 292 289 289 289 288 289 289 290 295 287 287 288 288 290 292 293 295 295 297 299 299 298
316 316 315 313 312 309 309 309 308 308 307 305 304 303 303 303 303 302 301 301 302 302 301 299 296 294 294 291 291 291 291 290 290 297 299 300 295 298 301 296 294 289 289 289 288 289 289 289 292 291 288 289 288 289 292 292 293 295 296 297 298 298 298
Wind_Speed
8 7 7 7 5 5 6 6 4 4 3 3 3 5 5 4 2 3 4 6 5 4 4 5 4 4 4 3 3 3 4 5 5 5 5 4 3 2 2 2 4 4 4 4 4 1 3 4 1 1 1 3 3 0 2 2 3 0 0 1 3 2 3
7 7 7 6 7 7 7 5 5 4 3 3 3 3 4 4 3 4 5 6 5 4 4 4 4 4 3 3 3 5 4 6 6 5 6 6 5 4 2 3 3 4 5 5 4 2 3 2 4 5 3 1 1 1 1 1 3 2 2 1 1 3 3
7 7 8 7 7 7 7 6 5 5 4 2 2 2 3 5 5 5 6 6 5 5 5 4 4 4 3 3 4 4 5 6 6 6 6 5 5 6 6 5 6 4 4 5 5 6 3 4 2 1 3 7 4 1 1 2 4 3 0 2 4 4 5
10 9 9 8 8 7 8 7 6 5 4 4 3 2 2 4 7 7 6 5 3 3 5 5 3 4 3 4 5 5 6 6 5 6 6 6 6 6 7 7 6 6 5 5 5 5 4 3 4 2 3 2 7 3 3 5 2 3 2 4 5 4 6
11 9 10 10 10 10 9 8 6 5 4 3 2 2 4 5 6 6 5 4 4 4 5 4 3 3 3 3 4 4 5 4 5 5 5 5 5 6 6 5 6 6 6 5 4 5 5 4 4 3 3 4 3 3 3 2 4 5 4 6 5 5 6
9 9 8 10 9 9 8 9 8 6 5 5 4 5 4 5 5 5 4 4 4 5 5 4 4 5 5 5 5 6 6 6 6 6 6 5 5 5 6 6 6 6 5 4 5 5 5 5 5 5 6 4 1 1 3 5 4 4 4 6 6 6 6
9 8 8 9 9 8 8 8 7 7 6 6 6 5 5 6 6 5 4 5 5 5 4 4 4 5 4 5 5 6 6 5 6 6 5 5 6 6 5 6 5 5 5 5 5 5 5 4 5 5 4 5 2 2 4 4 5 5 4 4 5 5 4
9 8 8 8 9 9 8 8 6 6 6 6 6 6 6 7 7 5 5 5 5 4 4 4 4 4 4 5 5 5 6 5 6 5 5 6 6 6 5 5 5 5 5 5 6 5 3 4 4 4 5 6 5 4 5 4 4 5 5 4 5 5 5
8 7 7 6 7 8 9 8 7 7 6 7 6 5 7 7 6 6 5 6 5 5 4 4 4 4 4 5 5 6 7 5 6 6 5 6 6 5 6 5 5 5 5 5 4 4 4 4 5 5 5 3 4 3 3 4 4 4 7 5 4 5 5
8 8 8 9 8 8 8 7 7 6 6 7 6 5 7 6 6 5 6 5 4 4 5 5 5 4 4 4 5 5 6 5 6 6 4 5 5 5 5 5 4 5 5 3 3 4 5 4 4 4 5 5 5 3 5 2 3 3 4 5 4 5 5
8 8 9 10 8 8 7 7 7 6 6 7 6 5 6 6 6 6 5 5 4 5 5 5 5 4 4 5 6 6 5 4 5 4 4 5 5 4 4 5 5 5 3 3 4 4 4 4 3 4 4 5 5 5 3 3 1 3 3 3 3 4 5
9 8 9 10 8 8 9 8 8 7 6 6 7 7 7 6 6 6 5 5 4 5 5 5 5 4 4 5 5 5 5 4 4 4 3 4 3 4 5 5 4 3 3 3 3 3 4 4 5 3 3 4 5 4 4 3 3 2 3 4 3 4 4
10 10 9 9 9 8 9 8 9 8 6 6 6 7 7 7 6 6 5 5 5 5 5 4 5 4 4 4 4 5 5 5 5 5 5 4 3 4 5 5 4 3 2 3 3 3 3 3 3 4 3 4 3 4 3 4 4 4 4 4 4 5 5
11 10 11 9 9 8 8 8 7 7 6 6 6 7 7 7 7 6 7 6 6 5 5 4 4 4 4 5 5 4 4 5 5 4 4 4 4 4 5 5 3 3 4 3 3 3 3 2 2 2 3 4 4 3 4 4 4 4 3 4 4 4 4
10 10 10 10 9 10 8 8 8 8 6 6 6 7 7 6 6 7 7 7 6 6 5 5 4 4 5 5 4 3 4 5 4 4 4 4 4 4 4 4 4 3 3 4 4 4 4 3 2 2 2 3 4 3 3 3 3 3 4 4 4 4 4
10 12 11 9 9 10 9 8 8 8 7 7 6 6 6 6 6 7 7 6 6 6 5 5 4 4 5 5 5 4 4 4 4 4 4 4 5 4 4 3 3 2 2 3 3 3 3 3 3 3 3 3 3 3 3 3 2 3 3 4 3 4 4
12 12 11 8 10 10 10 8 8 7 7 6 7 6 6 7 6 7 7 7 7 6 6 5 5 5 6 5 5 5 5 4 4 4 4 5 4 4 4 4 3 3 3 4 4 3 3 3 3 4 4 3 4 4 4 2 2 1 2 3 3 4 4
12 12 11 9 11 11 10 9 8 9 8 7 7 7 6 6 7 7 7 8 8 7 6 6 6 5 5 4 5 5 5 4 4 4 4 4 5 4 3 3 3 3 3 3 4 3 2 3 3 4 4 4 4 4 4 3 3 3 3 3 3 4 5
12 12 11 11 12 11 10 9 9 7 8 9 8 7 7 6 7 8 7 8 7 7 7 7 7 6 6 5 5 4 4 4 4 5 4 4 4 4 3 3 3 3 4 3 3 2 1 3 3 4 4 4 4 4 4 4 4 4 4 2 4 5 4
12 11 11 11 10 10 10 9 9 9 8 8 8 7 7 7 6 7 8 7 8 8 7 7 6 6 6 6 4 5 5 5 5 4 4 5 4 4 4 4 5 6 6 5 5 5 5 4 3 5 5 4 4 4 5 5 4 5 5 3 3 4 4
11 11 11 11 11 10 9 9 8 8 8 9 8 8 8 7 6 7 7 7 7 7 7 7 7 7 6 5 5 5 5 5 4 4 5 5 5 5 6 6 6 6 6 5 4 4 4 4 3 4 4 4 4 5 5 5 5 5 6 4 4 4 4
9 11 12 11 10 9 9 8 8 8 8 8 7 7 7 7 8 7 7 7 7 7 6 6 6 6 6 6 5 6 5 6 5 5 5 5 5 6 6 5 5 5 6 8 8 6 5 4 3 3 4 4 4 4 4 4 5 5 6 5 5 4 4
10 11 12 11 10 9 9 8 8 9 9 8 7 7 7 7 7 7 8 8 7 6 5 4 7 10 8 6 6 6 5 5 5 5 5 5 6 6 5 4 6 10 8 7 6 5 5 6 5 3 2 3 3 3 3 4 5 5 5 5 5 4 5
11 12 12 10 9 9 9 8 8 8 8 8 7 7 7 7 7 8 8 8 7 6 4 5 10 12 12 12 6 5 5 5 5 5 5 5 6 6 5 5 4 5 4 4 2 3 3 3 2 2 1 1 2 2 2 3 3 4 4 4 4 4 4
11 11 11 11 10 8 8 8 8 8 7 8 6 6 6 6 6 7 7 8 7 5 6 8 13 12 10 8 6 6 5 5 5 5 5 6 5 5 6 6 4 4 3 4 3 2 2 4 6 6 5 4 2 2 1 1 1 2 3 4 5 4 3
11 12 11 12 10 8 9 8 8 8 8 7 6 7 6 6 6 6 7 8 7 7 6 8 13 12 10 9 7 3 5 4 5 5 4 6 6 5 5 5 4 4 3 7 6 5 4 3 6 7 6 5 5 4 6 6 4 2 0 2 3 4 3
12 11 11 11 10 10 9 9 8 7 7 7 7 6 5 6 6 6 7 7 7 7 6 8 13 11 10 9 7 6 6 5 5 4 4 4 4 4 4 5 4 4 3 2 3 2 1 2 4 4 4 3 4 6 7 8 7 7 5 2 3 3 3
12 12 12 11 11 10 9 8 9 8 7 7 7 6 6 6 6 6 7 6 8 7 6 9 12 11 10 8 6 4 3 5 5 6 6 6 5 5 5 5 4 4 4 4 2 2 2 3 3 3 5 7 6 6 5 5 5 4 4 5 4 4 5
11 12 12 11 12 11 9 9 9 7 7 7 6 5 4 5 5 6 6 6 8 7 6 10 12 11 10 8 4 2 5 5 4 5 5 4 4 3 3 4 5 4 5 3 3 3 3 2 4 5 6 2 2 6 7 6 6 3 2 3 3 4 5
11 13 12 13 12 11 9 8 8 7 8 7 7 7 5 5 5 5 7 7 9 7 7 8 12 11 10 8 2 2 4 5 4 4 4 4 4 4 2 2 1 5 5 3 3 2 4 3 3 5 4 1 1 1 4 1 4 7 8 10 11 12 12
13 13 12 12 12 10 9 7 7 7 8 7 7 7 6 5 5 5 6 8 9 9 7 8 12 12 11 7 2 2 4 4 4 4 5 4 5 5 4 7 5 2 6 4 4 5 5 3 3 5 1 3 2 1 4 4 3 2 8 12 13 14 14
13 13 13 12 11 11 10 8 6 6 6 5 6 6 6 5 5 4 4 9 12 10 8 8 11 12 11 7 4 0 3 5 4 4 4 4 4 5 3 5 7 7 6 5 5 4 5 3 3 4 4 4 2 3 3 4 4 5 5 5 6 6 6
12 13 13 12 10 10 7 7 8 8 6 5 6 7 7 6 5 4 8 9 6 7 9 7 9 12 11 9 6 0 1 1 6 5 5 5 4 5 4 4 5 9 10 7 4 3 2 2 2 3 4 3 3 2 3 4 4 4 5 5 8 9 5
12 11 10 11 10 8 6 8 8 8 6 4 5 5 7 7 8 9 9 9 8 7 7 7 7 9 9 9 7 3 1 2 4 6 5 6 4 5 5 5 5 7 9 8 6 3 2 2 2 2 3 2 1 1 3 3 6 8 5 7 8 3 2
8 8 9 8 7 8 7 7 7 8 7 7 9 9 9 8 8 7 7 7 6 6 8 10 7 9 9 9 7 7 3 1 5 2 5 5 4 5 7 6 6 9 11 9 7 4 2 4 4 3 0 2 5 4 3 3 5 5 6 7 3 3 3
9 9 10 9 10 9 8 10 9 9 8 8 9 9 8 7 6 5 5 4 5 6 8 8 12 9 10 9 9 7 4 4 5 4 4 2 4 6 8 8 8 12 10 10 8 6 3 3 4 2 2 6 7 7 4 5 4 5 6 8 4 2 3
9 10 10 10 9 9 8 9 8 8 8 8 8 8 7 7 6 6 7 6 6 6 7 8 10 13 11 12 9 8 6 7 3 2 3 4 6 6 4 9 10 14 11 10 9 7 5 3 3 6 7 8 8 6 4 4 5 6 8 5 3 1 3
Wind_Direction
155 144 144 144 139 112 96 90 80 101 110 117 115 131 117 100 101 79 66 56 64 64 73 62 50 56 59 33 24 39 27 27 33 72 87 71 84 75 28 56 74 55 48 68 73 229 150 148 205 347 142 153 114 284 112 40 306 232 176 345 303 316 349
126 124 124 125 123 120 122 138 135 113 71 71 88 73 104 113 106 84 71 77 74 80 86 78 72 61 53 55 52 42 45 40 34 46 60 43 36 29 44 62 73 64 61 47 14 47 58 137 156 181 184 213 82 237 104 58 287 232 160 304 272 7 2
131 130 127 132 127 132 140 137 131 131 124 97 87 103 106 111 106 93 83 70 67 73 83 87 79 65 55 66 63 67 64 60 43 49 57 51 41 37 42 38 39 37 48 29 27 6 24 43 91 145 180 166 165 218 80 278 272 119 142 71 46 8 32
152 148 140 143 145 145 144 139 146 136 137 126 132 134 112 90 83 83 91 96 86 83 81 88 87 84 74 70 67 65 66 70 66 64 62 57 48 47 50 44 50 54 43 56 22 9 22 25 341 33 14 357 130 142 233 212 244 76 95 68 46 19 39
156 147 145 148 155 151 146 147 140 134 126 131 111 81 96 101 94 91 94 105 97 91 96 95 109 117 100 81 73 68 69 67 65 66 66 66 60 68 58 53 64 56 44 42 25 34 23 17 358 339 51 346 53 121 138 77 76 31 49 63 45 26 42
149 144 144 149 153 150 150 145 147 141 146 137 119 105 96 95 92 94 94 90 87 78 72 69 77 83 79 76 78 79 72 69 63 63 64 64 78 75 67 61 60 47 49 39 46 36 18 28 29 21 346 343 326 70 87 89 34 40 17 71 51 26 39
151 149 150 152 154 153 148 144 146 149 149 140 130 120 120 108 98 106 105 100 97 97 99 107 102 94 94 97 92 87 84 77 74 72 73 73 66 61 63 71 60 63 52 36 41 49 41 38 35 22 356 329 284 86 55 31 75 34 0 46 61 39 33
151 151 152 155 150 145 139 135 137 141 132 128 125 132 129 110 111 117 119 105 96 97 101 94 83 79 85 93 93 91 82 78 78 78 75 72 66 69 72 64 61 54 60 59 39 31 49 54 54 27 17 4 330 98 80 29 40 56 23 2 22 38 23
148 147 144 141 136 135 136 139 136 134 131 131 134 131 122 122 125 122 109 103 105 108 110 106 102 94 89 94 96 95 96 97 96 86 75 67 69 74 72 66 67 61 49 41 46 37 29 47 47 39 35 22 12 355 92 66 38 26 26 9 360 22 12
146 142 139 131 124 121 125 128 130 132 133 133 136 143 125 120 119 115 107 109 114 112 100 95 99 109 112 104 99 92 87 82 80 82 79 76 79 70 63 72 82 83 70 53 37 28 25 28 41 52 54 40 353 14 12 42 66 36 17 11 2 345 1
129 124 127 121 116 122 122 120 122 124 126 129 126 122 113 119 116 108 108 107 105 97 103 111 112 109 109 96 96 96 99 95 85 74 73 81 76 74 86 86 80 69 62 67 61 42 27 18 26 49 57 44 24 32 355 360 85 68 15 356 4 336 350
131 131 122 123 129 133 132 130 124 118 117 121 125 123 122 118 110 111 110 116 114 112 108 106 117 116 110 107 101 103 106 107 108 105 102 98 97 97 103 97 90 93 79 65 69 65 52 33 8 28 62 82 39 29 350 356 33 25 57 356 334 338 343
143 141 127 131 138 136 132 127 128 127 131 129 131 129 126 127 127 126 129 126 117 117 122 124 121 124 117 115 115 106 108 114 115 112 110 105 103 94 80 66 49 48 84 92 61 51 83 73 40 20 35 62 68 30 10 22 37 348 9 359 332 328 356
145 139 142 138 138 136 128 125 130 131 134 138 136 134 137 138 139 136 133 130 128 134 134 132 135 132 124 112 111 122 125 113 104 103 111 107 102 94 87 86 75 52 39 45 62 58 37 48 64 66 42 63 48 46 34 34 24 348 343 339 331 329 347
144 139 140 144 141 133 131 132 135 135 147 140 149 147 146 147 142 135 131 130 135 138 141 140 131 120 118 123 124 121 116 120 119 116 99 92 86 77 79 83 86 78 56 62 45 42 13 9 44 59 61 59 61 33 36 45 7 1 335 318 329 328 357
144 144 147 147 141 134 131 135 138 150 152 158 160 146 139 131 130 128 123 130 139 143 145 142 128 121 125 131 126 119 119 111 111 112 114 112 105 103 102 108 102 93 93 87 70 44 28 25 14 18 42 55 64 36 17 23 11 350 336 311 323 348 357
148 150 146 141 135 132 131 137 148 157 149 155 142 138 134 138 136 134 138 146 150 151 145 132 132 137 139 133 128 123 122 131 137 128 116 115 110 99 103 112 108 96 82 71 68 52 16 31 43 11 15 29 50 27 360 352 352 329 302 320 333 16 353
150 150 147 143 138 136 138 145 155 155 152 152 145 143 151 149 145 146 153 158 155 152 142 142 145 143 130 131 132 136 143 139 128 120 112 109 105 104 103 91 93 84 74 74 55 56 42 42 40 28 20 17 36 17 342 332 334 342 321 337 340 13 1
151 152 149 145 141 139 141 149 152 152 156 154 146 154 156 154 154 154 160 157 152 146 150 151 147 141 143 138 140 140 127 117 106 102 107 99 97 98 98 87 77 68 63 69 67 56 52 57 40 38 29 22 18 360 343 345 347 347 336 350 29 5 4
153 152 150 143 139 142 146 152 156 157 160 149 153 157 158 155 153 158 161 155 152 153 151 147 143 145 143 145 136 122 117 113 120 123 109 106 104 96 81 64 53 48 47 38 37 22 0 13 56 42 28 16 3 0 355 353 349 355 340 17 22 27 355
147 151 147 143 141 145 148 154 157 153 149 151 157 160 160 157 155 166 158 153 154 150 144 146 146 146 146 134 131 131 131 133 129 118 111 103 95 82 75 68 63 61 62 47 42 33 16 359 20 47 18 11 6 10 5 351 359 359 344 7 29 15 0
143 146 144 142 142 147 149 154 152 146 149 151 157 164 157 155 164 163 150 154 147 144 150 149 151 150 137 138 139 136 137 134 129 123 120 115 104 91 82 80 78 86 88 87 78 66 46 20 33 50 14 15 15 15 6 358 360 4 344 359 15 12 4
148 145 144 142 144 144 150 156 152 151 155 154 159 159 157 160 170 154 158 152 147 147 147 146 150 139 135 143 146 145 136 136 137 133 126 119 100 95 97 96 104 103 97 93 90 78 59 49 44 51 35 34 23 23 12 5 5 1 354 350 7 6 5
148 148 143 139 139 147 154 152 149 153 150 154 160 153 156 168 164 159 159 151 147 151 111 96 124 133 142 147 146 137 142 142 139 127 119 112 111 118 122 120 120 117 114 109 96 107 133 161 114 106 114 40 20 48 31 17 4 358 6 347 343 7 10
141 142 143 142 147 150 148 150 151 152 148 155 155 149 159 168 157 159 154 147 152 113 109 116 108 102 91 84 109 143 145 145 133 130 129 125 136 140 143 149 147 148 159 168 148 179 230 223 210 215 217 215 204 277 269 104 11 360 9 353 333 352 14
143 145 146 147 152 152 152 154 152 148 152 153 144 154 166 159 160 158 149 153 133 115 124 124 109 100 84 80 52 96 147 130 126 140 142 146 150 154 156 146 136 149 139 168 174 179 194 225 243 234 219 235 259 242 256 256 221 206 250 308 325 323 358
149 148 147 149 150 155 155 155 147 148 147 145 150 159 164 158 161 157 155 153 124 130 126 132 114 103 94 78 58 32 137 146 150 134 131 126 126 138 144 141 143 137 150 134 56 28 304 231 218 224 235 224 227 240 246 252 246 235 225 232 266 279 293
154 150 151 151 154 157 160 153 154 157 154 155 159 163 165 164 164 160 157 149 123 137 138 139 122 113 99 83 56 2 139 104 124 136 137 138 150 155 169 163 145 138 119 84 57 30 355 337 311 255 218 221 219 222 203 218 231 216 194 212 230 270 273
156 154 153 155 159 163 166 157 161 153 152 154 163 155 159 162 163 164 160 141 124 136 146 150 132 125 116 102 73 62 132 145 132 117 125 123 118 101 93 112 124 123 118 103 108 69 47 339 311 301 282 210 188 175 192 200 171 191 203 227 229 242 266
155 152 154 157 162 162 162 155 160 150 153 163 163 157 156 162 166 167 162 134 130 138 152 168 144 139 134 120 105 146 117 124 125 131 128 132 129 123 96 55 80 134 122 127 114 88 29 351 292 279 269 336 232 114 107 156 210 217 227 241 250 260 264
156 155 157 162 162 159 157 162 162 147 160 163 161 164 150 163 172 173 169 128 139 146 160 175 158 152 142 149 153 157 137 134 145 147 155 152 131 114 99 94 37 119 129 130 131 78 13 346 293 286 340 327 323 60 47 11 355 285 240 250 261 261 260
158 157 162 165 162 160 160 162 154 144 161 160 152 152 160 164 175 170 156 119 138 145 160 175 175 162 157 154 174 252 139 154 158 147 160 157 150 121 124 90 82 78 105 124 104 82 33 355 304 320 346 307 328 58 13 360 333 329 326 324 306 285 261
159 162 162 158 158 157 154 148 151 156 162 159 154 162 168 161 168 114 88 115 123 148 160 174 185 176 165 165 184 157 27 215 164 165 160 184 163 133 152 135 119 122 123 128 105 91 43 28 321 327 323 358 22 2 348 335 305 299 302 291 286 275 275
155 158 158 155 151 144 141 142 144 153 158 160 145 139 125 105 100 115 130 128 138 150 159 174 189 189 183 186 175 151 192 277 186 164 184 185 176 154 166 169 159 151 145 142 140 151 298 316 304 297 339 38 28 280 332 312 308 321 300 292 266 292 313
142 133 128 134 137 142 141 126 120 98 96 112 114 110 108 117 124 121 122 137 154 151 160 169 177 196 203 201 179 196 202 26 30 267 195 183 196 177 169 176 161 167 156 156 158 171 228 288 309 297 350 256 293 354 324 305 296 294 292 279 299 310 305
142 143 145 139 131 118 112 114 121 122 122 120 122 126 127 128 132 130 137 157 169 162 162 169 178 187 206 210 201 208 210 269 19 340 353 261 214 202 180 154 150 156 159 156 165 176 215 272 295 273 320 324 318 317 312 281 280 282 282 273 277 301 293
140 145 139 131 121 118 123 122 126 131 138 136 137 139 147 149 159 165 171 178 178 169 161 172 180 186 198 208 210 198 210 235 235 334 350 31 20 349 121 141 150 157 161 165 164 176 210 229 263 294 303 294 299 307 291 287 272 266 260 278 282 331 306